星链-30455 (STARLINK-30455 )

导读

STARLINK-30455是美国星链计划中的卫星,于2023年9月25日发射。星链是SpaceX打造的低轨卫星互联网星座,该卫星的发射是星链星座构建的一环,旨在为全球提供高速互联网服务,补充完善星座的覆盖范围与通信能力,推动全球空天地一体化网络建设。

基本信息
目录编号:
57942
目录名称:
STARLINK-30455
国际标识:
2023-148H
轨道中心:
EARTH
卫星名称:
星链-30455
卫星全名:
星链-30455 (STARLINK-30455 )
卫星状态:
在轨 (已飞行1075 天)
发射日期:
2023-09-25 UTC
国别 :
美国 (US)
星等 :
--
轨道信息
数据来源 国际轨道数据
星历时间: 2026-09-04T10:29:24+0800
13小时前
查看轨道信息
半长轴: 6843.367km
偏心率: 0.0001161
轨道倾角: 53.160°
近地点辐角 87.029°
升交点赤经 274.359°
平近点角 273.085°
近地点: 464.435km
远地点: 466.025km
周期: 93.900分钟
每日圈数: 15.335506
详细信息
固有亮度:
5
最大亮度:
0.3
卫星平台:
Starlink v2.0 mini
覆盖范围:
全球
运营商:
太空探索技术公司
运营商所在国:
美国
制造商(研发单位):
太空探索技术公司
制造商所在国:
美国
使用方式:
暂无
卫星简介
星链(Starlink)计划是由太空探索技术公司(SpaceX)提出的一个巨型低轨卫星互联网星座项目,计划在2019年至2024年间在太空搭建由约1.2万颗卫星组成的“星链”网络,其中1584颗将部署在地球上空550千米处的近地轨道,并从2020年开始工作。该卫星仍在工作。
2D轨道图
3D轨道图
轨道高度分析图
轨道倾角分析图
轨道综合分析图
查看轨道综合分析图
交会数据列表
事件ID 空间交会对象 最接近时刻(TCA) 交会距离 交会风险概率(CRP) 交会风险指数(CRI) 操作
CDM_260905-080905-794206-889623
2026-09-05T
08:09:26+0000
2.362 km
极远距离
1.951382E-6 低风险 0.41
CDM_260905-011205-794206-968221
2026-09-05T
01:12:42+0000
2.422 km
极远距离
1.857915E-6 低风险 0.4
CDM_260906-065505-794206-975021
2026-09-06T
06:55:23+0000
2.461 km
极远距离
1.803571E-6 低风险 0.4
CDM_260904-150704-945405-794221
2026-09-04T
15:07:08+0000
2.416 km
极远距离
1.62648E-6 低风险 0.39
CDM_260906-183105-794206-808321
2026-09-06T
18:31:16+0000
2.612 km
极远距离
1.430437E-6 低风险 0.38
CDM_260905-173405-794206-912621
2026-09-05T
17:34:06+0000
2.883 km
极远距离
1.405091E-6 低风险 0.38
CDM_260902-090405-794206-967221
2026-09-02T
09:04:46+0000
2.126 km
极远距离
1.388945E-6 低风险 0.38
CDM_260901-104905-794206-489221
OBJECT S (64892)
2026-09-01T
10:49:29+0000
2.628 km
极远距离
1.271806E-6 低风险 0.37
CDM_260903-125605-794206-449821
2026-09-03T
12:56:27+0000
2.623 km
极远距离
1.192927E-6 低风险 0.37
CDM_260906-210905-794206-895921
2026-09-06T
21:09:00+0000
2.857 km
极远距离
1.180917E-6 低风险 0.36